Regional Weather Roundup
Issued by NWS

Home | Current Version | Previous Version | Text Only | Print | Product List | Glossary On
Versions: 1 2 3 4 5 6 7 8 9 10 11 12 13 14 15 16 17 18 19 20 21 22 23 24 25 26 27 28 29 30 31 32 33 34 35 36 37 38 39 40 41 42 43 44 45 46 47 48 49 50
000
ASUS43 KLSX 300357
RWRMO

WEATHER SUMMARY FOR MISSOURI
NATIONAL WEATHER SERVICE SPRINGFIELD MO
1100 PM CDT THU SEP 29 2016

NOTE: "FAIR" INDICATES FEW OR NO CLOUDS BELOW 12,000 FEET WITH NO
       SIGNIFICANT WEATHER AND/OR OBSTRUCTIONS TO VISIBILITY.
       CURRENT SKY AND/OR WEATHER CONDITIONS ARE NOT AVAILABLE FOR
       CHILLICOTHE AND FARMINGTON.

MOZ001>031-035>038-043-044-053-054-300500-
...NORTHERN AND WESTERN MISSOURI...

CITY           SKY/WX    TMP DP  RH WIND       PRES   REMARKS
KANSAS CTY INT CLEAR     57  47  69 N7        30.30S
LEE`S SUMMIT   CLEAR     59  49  69 N5        30.30R
ST JOSEPH      CLEAR     51  49  92 CALM      30.31S
CHILLICOTHE      N/A     60  51  72 N6        30.29S

$$
MOZ066>068-077>081-088>096-101>105-300500-
...SOUTHWEST MISSOURI...

CITY           SKY/WX    TMP DP  RH WIND       PRES   REMARKS
SPRINGFIELD    CLEAR     56  47  71 NW6       30.25S
JOPLIN         CLEAR     53  49  86 CALM      30.29R

$$
MOZ032>034-039>042-045>050-055>058-069>072-300500-
...CENTRAL MISSOURI...

CITY           SKY/WX    TMP DP  RH WIND       PRES   REMARKS
COLUMBIA       NOT AVBL
JEFFERSON CITY CLOUDY    66  51  58 N5        30.21S
ROLLA          CLOUDY    62  53  72 N3        30.20R
SEDALIA        CLEAR     60  50  69 NW7       30.26S

$$
MOZ051-052-059>065-300500-
...EAST CENTRAL MISSOURI...

CITY           SKY/WX    TMP DP  RH WIND       PRES   REMARKS
ST LOUIS INTL  CLOUDY    63  57  81 N12       30.18F
SPIRIT OF STL  CLOUDY    64  58  80 N8        30.18S

$$
MOZ072>076-082>087-097>100-106>115-300500-
...SOUTH CENTRAL AND SOUTHEAST MISSOURI...

CITY           SKY/WX    TMP DP  RH WIND       PRES   REMARKS
CAPE GIRARDEAU PTCLDY    56  55  97 W5        30.14S FOG
POPLAR BLUFF   MOCLDY    61  57  87 NW5       30.14F
WEST PLAINS    CLEAR     59  51  75 NW7       30.21F

$$



USA.gov is the U.S. government's official web portal to all federal, state and local government web resources and services.